Location: *
(28.3744°N, 81.5492°W)
Time: 03:53:30
(UTC+00:00)

RESURS DK-1 - Pass Details

Date: 15 June 2025
Orbit: 531 x 535 km, 69.9° (Epoch: 11 July)

Event Time Altitude Azimuth Distance (km) Brightness Sun altitude
Exits shadow 02:24:34 68° 57° (ENE) 577 2.2 -22.2°
Drops below altitude 10° 02:28:10 10° 24° (NNE) 1,789 5.2 -22.8°
Sets 02:30:21 0° 23° (NNE) 2,682 6.1 -23.1°
